Find Starlink 35484

NORAD ID: 65923 Int'l Des: 2025-225 Owner: SPXS Country: US Constellation: starlink operational
LEOCIRCULAR

实时位置

正在加载3D地球...

关于 Starlink 35484

正在加载描述...

即将过境

Passes for default location (London). Set your location on the main map for personalized predictions.

高度历史

Loading altitude history...

两行轨道根数

1 65923U 25225P 26106.06839016 .00011870 00000-0 41220-3 0 9998
2 65923 53.1607 351.8670 0001229 95.7062 264.4079 15.30203593 30132
Epoch: Apr 16, 2026 • Age: 12 hours

当前状态

高度 494.4 km
速度 7.62 km/s
星下点 -52.86°S, 162.01°W
发射日期 Oct 8, 2025
运行时间 0.5 years
类型 internet

技术详情

分类 Payload
质量 575.00 kg
干质量 530.00 kg
总质量 575.00 kg
长度 0.30 m
直径 4.10 m
跨度 29.00 m
形状 Box + pan
制造商 SPXS
平台类型 Starlink V2MO
阶段状态 In Orbit
所有者/国家 SPXS/US

Most Searched